Regional Weather Roundup
Issued by NWS Newport/Morehead, NC

Current Version | Previous Version | Graphics & Text | Print | Product List | Glossary On
Versions: 1 2 3 4 5 6 7 8 9 10 11 12 13 14 15 16 17 18 19 20 21 22 23 24 25 26 27 28 29 30 31 32 33 34 35 36 37 38 39 40 41 42 43 44 45 46 47 48 49 50
000 ASUS42 KMHX 222125 RWRMHX WEATHER ROUNDUP FOR EASTERN NORTH CAROLINA NATIONAL WEATHER SERVICE NEWPORT/MOREHEAD CITY NC 500 PM EDT WED MAR 22 2017 NOTE: "FAIR" INDICATES FEW OR NO CLOUDS BELOW 12,000 FEET WITH NO SIGNIFICANT WEATHER AND/OR OBSTRUCTIONS TO VISIBILITY NCZ015>017-031-032-045>047-102-103-222200- NORTH COAST CITY SKY/WX TMP DP RH WIND PRES REMARKS EDENTON SUNNY 56 21 26 N14G23 30.23R ELIZABETH CITY SUNNY 50 25 37 N17 30.23R KITTY HAWK NOT AVBL MANTEO MOSUNNY 47 24 40 NE22G31 30.26R $$ NCZ045>047-081-094-103-104-222200- CENTRAL COAST CITY SKY/WX TMP DP RH WIND PRES REMARKS FRISCO SUNNY 48 28 46 N13G29 30.23R $$ NCZ095-097-098-100-101-222200- SOUTHERN COAST CITY SKY/WX TMP DP RH WIND PRES REMARKS BEAUFORT SUNNY 56 38 50 NE14G22 30.19R CEDAR ISLAND NOT AVBL JACKSONVILLE PTSUNNY 61 39 44 NE15 30.16R PINEY ISLAND CLEAR N/A N/A N/A NE17G29 30.20R WILMINGTON CLOUDY 63 45 51 NE15 30.15R $$ NCZ011>013-027>030-043-044-078>080-089-090>093-098-222200- COASTAL PLAIN CITY SKY/WX TMP DP RH WIND PRES REMARKS AHOSKIE NOT AVBL CLINTON MOSUNNY 64 39 40 N9 30.17R ELIZABETHTOWN MOSUNNY 66 38 35 N7 30.15R GOLDSBORO MOSUNNY 61 19 20 NE13G21 30.18R GREENVILLE MOSUNNY 57 14 18 N18G25 30.23R HAVELOCK NOT AVBL KENANSVILLE PTSUNNY 63 30 29 NE9 30.18R KINSTON MOSUNNY 61 23 23 N14G25 30.20R NEW BERN PTSUNNY 58 27 30 N17G24 30.19R RICHLANDS MOSUNNY 61 36 39 N13 30.17R ROCKY MOUNT SUNNY 59 23 25 N13 30.21R WASHINGTON MOSUNNY 55 19 24 N12G17 30.22R WHITEVILLE PTSUNNY 66 40 37 N7 30.13R $$ AMZ130-135-150-152-154-156-158-170-250-252-270-ANZ085-086-088-633-658-670-222200- MARINE OBSERVATIONS STATION/POSITION TIME TEMP WIND PRES WAVE SWELL AIR SEA DIR/SP/G HT/PER HT/PER (UTC) (F) (DEG/KT/KT) (MB) (FT/S) (FT/S) CHESAPEAKE LIGHT NOT AVBL 64 E VA BEACH 2050 45 49 10/ 21/ 25 1022.6 8/ 7 3/10 DUCK 2100 45 49 20/ 25/ 28 1023.1 2 E DUCK 2100 47 N/A 7/ 6 2/11 OREGON INLET 2100 46 52 360/ 16/ 23 1023.9 13E OREGON INLT NOT AVBL HATTERAS CG 2100 47 56 10/ 26/ 33 1023.1 DIAMOND BUOY 2050 49 72 10/ 27/ 35 1022.2 10/ 9 3/16 CAPE LOOKOUT 2100 51 40/ 26/ 31 1022.2 BEAUFORT LAB 2100 54 53 50/ 10/ 18 1021.4 30 SE NEW RVR IN 2108 55 70/ 19/ 27 1021.6 30 SE NEW RVR IN 2043 64 N/A 7/10 2/11 27 SE WRIGHTSVLE 2108 57 64 90/ 19/ 29 1020.8 5 SE WRIGHTSVLE 2108 57 57 80/ 14/ 23 1021.1 225 S CAPE HAT 2050 68 76 10/ 25/ 31 1015.5 9/ 8 7/ 8 41 SE CHARLESTON 2050 63 66 60/ 21/ 25 1018.6 5/ 5 2/11 $$

USA.gov is the U.S. government's official web portal to all federal, state and local government web resources and services.